SCP
0 0 0 0 0 0 0 0 0 0 0 0 -0 -0 -0 -0 -0 -0 -0 -0 -0 -0 -0 0 0 0 0 -0 -0 -0 -0 0 0 0 0 0 -0 -0 0 0 0 -0 -0
0 -0 0 0 0 0 0 0 0 0 0 0 0 -0 -0 -0 -0 -0 -0 -0 -0 -0 -0 0 0 0 0 -0 -0 -0 -0 0 0 0 0 0 -0 -0 0 -0 -0 -0 -0
0 0 0 0 0 0 0 0 0 0 0 0 0 -0 -0 -0 -0 -0 -0 -0 -0 -0 0 0 0 0 -0 0 0 0 0 0 0 0 0 0 -0 -0 0 0 -0 -0 -0
0 -0 -0 0 -0 -0 0 0 0 0 0 0 0 -0 -0 -0 -0 -0 -0 -0 -0 0 0 0 0 0 0 0 0 0 0 0 0 0 0 0 -0 -0 -0 0 -0 -0 0
-0 -0 0 -0 -0 0 -0 0 0 0 0 0 0 -0 -0 0 0 -0 -0 0 0 0 -0 0 0 -0 0 0 0 0 0 -0 -0 -0 0 0 -0 -0 -0 -0 -0 0 0
0 0 0 0 0 0 0 0 0 0 0 -0 0 0 0 0 0 -0 -0 -0 0 -0 0 0 -0 -0 -0 0 0 0 0 -0 -0 0 -0 0 -0 -0 -0 -0 -0 -0 -0
0 0 0 0 0 0 0 0 0 0 0 0 0 0 0 0 -0 -0 0 -0 -0 -0 -0 -0 -0 -0 -0 0 0 0 0 0 0 0 -0 -0 -0 -0 -0 -0 -0 -0 -0
0 0 0 0 0 0 0 0 0 0 0 0 0 0 0 0 -0 -0 -0 0 -0 -0 0 -0 -0 -0 -0 -0 0 0 0 -0 0 0 0 -0 -0 -0 -0 -0 -0 -0 -0
-0 0 0 0 0 0 0 0 -0 0 0 0 0 0 0 0 0 0 0 -0 -0 -0 -0 -0 -0 -0 -0 -0 -0 -0 -0 0 -0 0 0 -0 -0 -0 -0 -0 -0 -0 -0
0 0 0 0 0 0 0 -0 -0 0 0 0 0 0 0 0 0 0 0 0 0 0 0 0 0 -0 -0 -0 -0 -0 -0 -0 0 0 0 0 -0 -0 -0 -0 -0 -0 -0
-0 0 0 0 0 -0 -0 -0 -0 -0 -0 0 0 0 0 0 -0 0 0 0 0 0 0 0 0 -0 -0 -0 -0 -0 -0 0 0 0 0 -0 -0 -0 -0 -0 -0 -0 -0
0 -0 -0 0 0 -0 -0 0 0 -0 -0 0 0 0 0 0 -0 -0 0 0 0 0 0 0 0 0 0 0 0 -0 -0 0 0 -0 0 -0 -0 -0 -0 -0 0 0 0
-0 -0 -0 -0 -0 0 0 0 -0 -0 0 0 0 -0 0 -0 -0 0 -0 0 0 0 0 0 0 0 0 0 0 0 -0 0 0 -0 -0 -0 -0 -0 -0 -0 0 0 -0
-0 -0 0 0 0 0 -0 -0 -0 -0 -0 -0 -0 0 0 -0 -0 -0 -0 -0 -0 -0 -0 -0 -0 -0 -0 -0 -0 -0 -0 -0 -0 -0 -0 -0 -0 -0 -0 -0 -0 0 -0
-0 -0 -0 -0 -0 0 -0 -0 0 -0 -0 0 -0 -0 0 -0 -0 -0 -0 -0 -0 -0 0 -0 -0 -0 0 -0 -0 -0 -0 -0 -0 -0 0 -0 -0 -0 -0 -0 -0 -0 -0
-0 -0 -0 -0 -0 -0 0 0 -0 -0 -0 0 0 -0 0 0 -0 -0 -0 -0 -0 -0 -0 -0 -0 -0 -0 -0 -0 -0 -0 -0 -0 -0 -0 0 -0 -0 -0 -0 -0 -0 -0
-0 -0 -0 -0 -0 -0 -0 0 0 -0 -0 0 0 -0 0 -0 0 0 0 0 0 -0 0 0 0 -0 -0 0 0 0 0 0 0 -0 -0 -0 0 -0 -0 -0 -0 0 0
-0 -0 -0 -0 -0 -0 -0 -0 0 0 -0 -0 -0 -0 0 0 0 0 0 0 0 -0 -0 0 0 -0 0 0 0 0 0 0 0 0 0 -0 -0 0 -0 0 -0 -0 -0
-0 -0 -0 -0 -0 -0 -0 -0 -0 0 0 0 -0 0 0 0 0 0 0 -0 0 0 0 0 -0 0 0 0 0 0 0 0 0 0 0 0 0 0 0 -0 0 0 -0
-0 -0 -0 -0 0 -0 -0 0 0 -0 0 0 0 -0 -0 -0 0 -0 0 0 0 0 0 0 0 0 0 0 0 0 0 0 -0 0 0 0 0 -0 0 0 0 0 0
-0 -0 -0 -0 -0 0 -0 -0 0 0 0 0 0 0 0 -0 -0 0 -0 0 0 0 0 0 0 0 0 0 0 0 0 0 0 -0 0 0 0 0 0 0 0 0 0
-0 -0 -0 -0 -0 -0 -0 0 -0 -0 0 -0 -0 0 0 0 0 0 0 0 0 0 0 0 0 0 0 0 0 0 0 0 0 0 0 0 0 0 0 0 0 0 0
-0 -0 -1 -0 -0 -0 0 0 0 -0 -0 0 0 0 0 0 0 0 0 0 0 0 0 0 0 0 0 0 0 0 0 0 0 0 0 0 0 0 0 0 0 0 0
-0 -0 -0 -1 -0 -0 -0 -0 0 0 -0 0 0 0 0 0 -0 0 -0 -0 0 -0 0 0 0 0 0 0 0 0 0 0 0 0 0 0 0 0 0 0 0 0 0
-0 -0 -0 -0 -0 -0 -0 0 -0 -0 -0 -0 -0 -0 -0 -0 -0 -0 0 0 0 0 0 0 0 0 0 0 0 0 0 0 0 0 0 0 0 0 0 0 0 0 0
-0 -0 -0 -0 -0 -0 0 -0 -0 -0 -0 -0 -0 -0 -0 -0 -0 -0 0 0 0 0 0 0 0 0 0 0 0 0 0 0 0 0 0 0 0 0 0 0 0 0 0
Wind_Speed_500mb
37 46 48 53 51 57 57 52 52 52 51 50 47 42 37 33 31 28 27 27 26 26 25 26 26 26 25 25 23 21 19 19 18 25 31 26 16 19 21 21 22 10 7
42 48 50 53 53 52 52 51 51 50 48 46 43 37 32 29 26 25 24 24 24 23 24 23 24 25 24 23 22 19 17 15 19 31 19 25 17 17 18 20 33 13 16
44 48 47 50 48 46 46 46 45 46 45 42 38 32 29 26 24 21 22 21 20 20 19 21 23 24 23 21 19 17 16 14 21 34 25 19 18 14 19 22 12 16 20
44 37 37 41 39 40 42 42 40 41 41 37 32 28 25 21 18 18 18 18 17 18 20 21 22 22 21 20 17 16 16 16 18 25 20 13 6 10 19 20 19 17 18
40 37 34 38 37 37 40 39 38 39 38 33 28 24 19 15 14 16 15 15 18 18 19 20 20 20 19 19 17 15 13 13 16 27 12 12 8 9 19 17 18 21 27
34 30 35 33 35 36 36 37 35 36 35 30 23 19 17 14 13 12 13 14 15 15 17 18 19 17 15 16 16 15 14 13 14 25 6 15 8 11 17 21 20 18 20
32 29 31 32 34 34 33 34 34 32 29 24 20 20 16 13 11 10 10 12 11 12 16 18 18 16 13 15 16 15 14 15 15 13 17 7 7 10 13 18 18 17 16
31 31 30 34 32 31 33 35 34 30 27 24 22 16 12 9 8 8 10 10 10 12 14 15 16 15 12 12 14 17 18 15 11 11 12 9 7 10 16 17 18 17 15
37 32 28 28 33 33 34 35 31 27 25 22 16 12 9 5 4 7 10 12 12 12 12 12 12 13 13 12 13 16 22 26 18 8 5 1 5 5 12 14 13 17 17
33 33 33 27 27 26 31 34 27 20 21 16 12 11 8 2 8 11 12 11 14 12 11 11 9 11 12 14 15 19 19 18 5 2 11 2 5 2 7 10 13 15 14
32 29 29 29 27 27 24 26 25 21 19 15 13 9 7 3 9 14 16 17 13 11 10 14 9 15 12 18 20 22 20 11 4 5 11 12 8 1 4 8 12 14 14
32 31 34 29 28 25 21 22 17 14 11 10 9 13 4 9 12 13 13 15 16 18 12 20 14 13 15 11 15 21 14 14 10 4 11 15 16 5 4 6 8 14 17
35 31 34 32 30 28 28 15 17 14 15 14 18 17 11 10 8 12 10 14 10 15 19 18 14 9 11 9 16 13 13 16 11 15 13 19 22 8 6 11 6 12 17
37 34 35 34 32 31 23 21 18 18 17 16 14 19 15 10 11 13 12 12 10 10 17 15 20 14 13 19 15 16 16 11 12 9 21 22 21 12 9 6 15 10 14
40 38 37 36 34 33 27 22 21 19 19 17 17 18 15 15 15 15 15 14 18 16 16 12 17 17 16 18 16 17 15 14 11 9 16 25 26 14 12 12 9 18 13
41 40 37 35 34 32 31 25 25 22 20 21 19 19 23 19 17 20 22 19 15 17 22 15 19 17 17 19 15 20 15 17 14 17 13 19 24 17 15 17 16 13 16
42 40 40 37 35 34 32 29 26 24 21 23 23 23 23 31 27 25 25 19 19 20 23 25 14 14 18 16 15 16 17 17 17 17 16 14 21 20 12 15 18 18 17
42 42 40 36 36 35 32 30 27 26 26 24 22 20 21 27 25 22 19 16 18 17 19 16 14 14 15 15 19 18 16 16 14 14 8 7 9 12 16 13 11 18 18
45 44 42 40 38 37 35 31 29 27 28 23 26 23 25 26 27 18 19 20 21 21 22 12 6 13 16 17 15 14 11 11 9 6 6 6 6 7 7 13 15 19 22
45 44 43 42 41 39 36 39 31 40 28 25 26 23 27 22 24 24 19 27 24 13 9 7 13 17 16 10 12 12 8 4 3 2 5 3 3 2 5 8 16 13 17
46 45 45 45 44 41 39 33 27 24 24 28 30 35 31 24 22 26 12 17 14 11 10 11 15 14 9 7 11 8 7 2 1 4 4 1 3 1 3 2 3 2 14
53 49 49 48 48 46 37 34 31 27 26 26 28 21 19 24 17 20 19 11 14 8 14 11 9 6 9 8 7 7 9 11 10 9 0 3 1 1 2 1 4 24 2
58 57 55 55 52 51 45 33 32 26 31 18 26 25 22 18 18 20 15 15 14 17 11 10 5 8 6 8 9 6 7 7 4 7 0 1 6 2 2 4 1 4 13
62 58 58 57 57 51 50 43 39 32 30 25 23 18 18 21 20 19 19 15 18 8 17 5 5 7 5 5 7 1 7 8 11 6 9 3 2 2 3 2 5 6 2
61 60 58 62 60 55 52 49 44 41 30 25 21 20 24 20 22 20 19 20 12 10 15 13 6 5 3 5 5 5 4 5 6 8 11 9 2 4 5 6 8 7 14
65 63 61 64 65 61 56 53 57 43 41 29 27 22 18 19 20 24 24 19 14 13 12 6 8 7 9 11 5 5 4 5 3 7 15 14 8 15 11 13 13 12 13
Wind_Direction_500mb
118 126 131 128 129 131 132 131 127 122 124 127 125 118 113 109 104 96 92 89 86 80 74 62 53 48 43 44 46 51 56 66 62 51 58 51 64 71 86 109 101 109 124
124 130 133 132 131 131 133 130 127 126 127 127 124 120 117 107 99 92 89 82 78 73 65 53 45 40 38 40 44 49 55 63 62 58 54 52 59 68 102 129 104 141 137
127 128 129 130 132 135 131 129 128 130 128 130 129 124 115 103 92 90 84 81 71 62 55 45 35 34 33 38 44 46 45 62 75 75 60 100 354 66 105 145 133 136 126
130 130 130 131 131 133 136 134 129 130 136 131 130 127 117 106 94 88 79 70 59 49 45 38 29 24 27 32 36 44 49 61 88 70 53 101 50 64 106 129 126 116 118
138 142 147 134 132 132 134 133 133 135 135 134 131 129 128 112 94 82 71 58 44 43 39 27 25 23 19 30 27 29 45 61 92 92 74 95 76 71 116 114 114 116 115
138 141 147 139 139 137 135 135 135 136 138 138 138 137 129 120 94 85 67 44 35 38 29 20 18 22 23 27 32 30 34 53 75 100 100 105 139 95 122 132 146 136 139
141 146 148 148 145 144 139 139 142 142 144 145 141 134 126 109 101 77 47 25 26 24 15 15 17 20 32 24 29 46 51 60 70 102 111 116 33 108 132 144 139 140 133
137 139 144 146 146 147 149 146 145 146 146 143 142 140 130 107 81 46 17 6 18 8 11 16 16 27 37 29 23 33 54 62 39 103 117 184 347 106 125 124 139 141 137
144 144 144 145 150 156 159 156 146 146 147 150 150 150 147 127 64 23 4 6 8 4 7 13 14 16 35 41 24 20 49 68 80 31 118 334 13 110 122 139 146 148 145
150 151 150 151 148 150 163 170 165 158 166 171 167 168 161 91 359 20 340 358 345 336 354 359 10 23 27 30 28 28 49 52 56 67 26 359 302 64 163 153 167 165 164
155 158 147 152 163 156 164 174 177 179 188 190 188 184 147 333 32 330 310 308 339 341 351 352 360 21 49 31 23 47 24 25 2 64 328 326 339 216 163 170 179 181 177
163 166 165 170 162 166 165 194 174 187 193 191 211 249 173 249 233 221 280 323 341 359 6 5 18 30 28 356 343 356 3 348 290 267 293 320 322 300 206 196 192 192 193
170 168 172 169 171 170 177 179 181 201 201 225 216 217 235 237 265 303 298 313 333 350 321 359 322 355 338 318 310 316 322 320 313 315 310 306 313 285 232 206 194 214 200
175 177 179 181 182 182 189 189 195 205 210 219 240 234 217 251 258 266 269 297 297 289 297 273 290 296 297 297 291 307 309 318 310 311 316 309 316 284 245 237 209 205 214
182 184 187 190 192 192 193 200 204 210 216 222 228 253 221 240 251 268 265 271 295 288 306 277 282 299 301 298 303 289 301 316 296 291 303 305 307 280 245 236 227 223 216
188 189 192 193 197 197 202 204 210 212 221 227 234 239 267 236 249 255 281 293 287 293 273 276 268 259 303 299 311 326 321 297 292 285 269 295 302 308 269 243 241 240 233
194 194 195 197 202 205 208 219 217 223 230 233 234 233 242 257 245 244 249 262 267 278 284 291 304 326 324 314 313 302 299 298 291 286 277 255 277 300 304 289 252 240 245
197 197 198 201 206 211 211 215 216 228 231 230 239 253 236 256 273 261 275 283 283 277 276 284 311 304 305 301 302 305 302 301 302 296 302 254 247 258 290 278 287 269 259
200 201 202 201 204 208 216 217 223 227 233 241 248 240 255 255 263 259 262 265 269 263 267 287 307 305 302 305 299 298 305 314 314 320 295 268 224 245 237 241 292 290 262
203 203 204 206 205 208 214 218 219 223 226 240 248 239 256 247 242 248 249 257 265 284 290 250 264 293 291 303 291 278 280 287 300 11 29 75 61 161 201 233 298 285 286
203 204 205 203 210 203 213 217 219 231 228 234 238 244 238 263 256 253 256 258 279 259 238 305 294 296 317 289 297 264 244 207 347 117 74 80 64 159 289 299 5 152 257
203 204 203 205 205 210 215 206 216 224 229 240 240 228 231 246 249 244 235 256 244 261 276 275 290 282 292 285 311 284 246 193 186 141 147 14 144 95 346 7 271 196 262
206 204 205 207 209 210 203 213 220 218 231 228 233 257 255 233 229 242 235 209 240 233 272 295 292 282 289 292 303 316 292 66 186 180 34 168 29 354 35 340 312 285 219
209 208 207 210 210 213 210 208 215 217 222 228 229 226 213 216 208 219 213 214 228 193 219 271 284 196 281 305 321 337 305 338 324 172 193 204 43 352 175 174 311 325 50
211 211 210 212 213 206 216 206 216 215 218 216 215 217 206 217 198 201 201 214 225 185 234 212 250 207 253 285 294 304 318 300 318 309 307 149 293 243 313 323 274 273 313
213 212 211 211 215 215 209 221 204 218 212 212 213 213 207 206 208 199 208 208 215 194 226 241 224 227 199 208 221 272 275 290 319 304 295 292 287 285 259 283 279 283 277
Wind_Speed_850mb
37 46 48 53 51 57 57 52 52 52 51 50 47 42 37 33 31 28 27 27 26 26 25 26 26 26 25 25 23 21 19 19 18 25 31 26 16 19 21 21 22 10 7
42 48 50 53 53 52 52 51 51 50 48 46 43 37 32 29 26 25 24 24 24 23 24 23 24 25 24 23 22 19 17 15 19 31 19 25 17 17 18 20 33 13 16
44 48 47 50 48 46 46 46 45 46 45 42 38 32 29 26 24 21 22 21 20 20 19 21 23 24 23 21 19 17 16 14 21 34 25 19 18 14 19 22 12 16 20
44 37 37 41 39 40 42 42 40 41 41 37 32 28 25 21 18 18 18 18 17 18 20 21 22 22 21 20 17 16 16 16 18 25 20 13 6 10 19 20 19 17 18
40 37 34 38 37 37 40 39 38 39 38 33 28 24 19 15 14 16 15 15 18 18 19 20 20 20 19 19 17 15 13 13 16 27 12 12 8 9 19 17 18 21 27
34 30 35 33 35 36 36 37 35 36 35 30 23 19 17 14 13 12 13 14 15 15 17 18 19 17 15 16 16 15 14 13 14 25 6 15 8 11 17 21 20 18 20
32 29 31 32 34 34 33 34 34 32 29 24 20 20 16 13 11 10 10 12 11 12 16 18 18 16 13 15 16 15 14 15 15 13 17 7 7 10 13 18 18 17 16
31 31 30 34 32 31 33 35 34 30 27 24 22 16 12 9 8 8 10 10 10 12 14 15 16 15 12 12 14 17 18 15 11 11 12 9 7 10 16 17 18 17 15
37 32 28 28 33 33 34 35 31 27 25 22 16 12 9 5 4 7 10 12 12 12 12 12 12 13 13 12 13 16 22 26 18 8 5 1 5 5 12 14 13 17 17
33 33 33 27 27 26 31 34 27 20 21 16 12 11 8 2 8 11 12 11 14 12 11 11 9 11 12 14 15 19 19 18 5 2 11 2 5 2 7 10 13 15 14
32 29 29 29 27 27 24 26 25 21 19 15 13 9 7 3 9 14 16 17 13 11 10 14 9 15 12 18 20 22 20 11 4 5 11 12 8 1 4 8 12 14 14
32 31 34 29 28 25 21 22 17 14 11 10 9 13 4 9 12 13 13 15 16 18 12 20 14 13 15 11 15 21 14 14 10 4 11 15 16 5 4 6 8 14 17
35 31 34 32 30 28 28 15 17 14 15 14 18 17 11 10 8 12 10 14 10 15 19 18 14 9 11 9 16 13 13 16 11 15 13 19 22 8 6 11 6 12 17
37 34 35 34 32 31 23 21 18 18 17 16 14 19 15 10 11 13 12 12 10 10 17 15 20 14 13 19 15 16 16 11 12 9 21 22 21 12 9 6 15 10 14
40 38 37 36 34 33 27 22 21 19 19 17 17 18 15 15 15 15 15 14 18 16 16 12 17 17 16 18 16 17 15 14 11 9 16 25 26 14 12 12 9 18 13
41 40 37 35 34 32 31 25 25 22 20 21 19 19 23 19 17 20 22 19 15 17 22 15 19 17 17 19 15 20 15 17 14 17 13 19 24 17 15 17 16 13 16
42 40 40 37 35 34 32 29 26 24 21 23 23 23 23 31 27 25 25 19 19 20 23 25 14 14 18 16 15 16 17 17 17 17 16 14 21 20 12 15 18 18 17
42 42 40 36 36 35 32 30 27 26 26 24 22 20 21 27 25 22 19 16 18 17 19 16 14 14 15 15 19 18 16 16 14 14 8 7 9 12 16 13 11 18 18
45 44 42 40 38 37 35 31 29 27 28 23 26 23 25 26 27 18 19 20 21 21 22 12 6 13 16 17 15 14 11 11 9 6 6 6 6 7 7 13 15 19 22
45 44 43 42 41 39 36 39 31 40 28 25 26 23 27 22 24 24 19 27 24 13 9 7 13 17 16 10 12 12 8 4 3 2 5 3 3 2 5 8 16 13 17
46 45 45 45 44 41 39 33 27 24 24 28 30 35 31 24 22 26 12 17 14 11 10 11 15 14 9 7 11 8 7 2 1 4 4 1 3 1 3 2 3 2 14
53 49 49 48 48 46 37 34 31 27 26 26 28 21 19 24 17 20 19 11 14 8 14 11 9 6 9 8 7 7 9 11 10 9 0 3 1 1 2 1 4 24 2
58 57 55 55 52 51 45 33 32 26 31 18 26 25 22 18 18 20 15 15 14 17 11 10 5 8 6 8 9 6 7 7 4 7 0 1 6 2 2 4 1 4 13
62 58 58 57 57 51 50 43 39 32 30 25 23 18 18 21 20 19 19 15 18 8 17 5 5 7 5 5 7 1 7 8 11 6 9 3 2 2 3 2 5 6 2
61 60 58 62 60 55 52 49 44 41 30 25 21 20 24 20 22 20 19 20 12 10 15 13 6 5 3 5 5 5 4 5 6 8 11 9 2 4 5 6 8 7 14
65 63 61 64 65 61 56 53 57 43 41 29 27 22 18 19 20 24 24 19 14 13 12 6 8 7 9 11 5 5 4 5 3 7 15 14 8 15 11 13 13 12 13
Wind_Direction_850mb
118 126 131 128 129 131 132 131 127 122 124 127 125 118 113 109 104 96 92 89 86 80 74 62 53 48 43 44 46 51 56 66 62 51 58 51 64 71 86 109 101 109 124
124 130 133 132 131 131 133 130 127 126 127 127 124 120 117 107 99 92 89 82 78 73 65 53 45 40 38 40 44 49 55 63 62 58 54 52 59 68 102 129 104 141 137
127 128 129 130 132 135 131 129 128 130 128 130 129 124 115 103 92 90 84 81 71 62 55 45 35 34 33 38 44 46 45 62 75 75 60 100 354 66 105 145 133 136 126
130 130 130 131 131 133 136 134 129 130 136 131 130 127 117 106 94 88 79 70 59 49 45 38 29 24 27 32 36 44 49 61 88 70 53 101 50 64 106 129 126 116 118
138 142 147 134 132 132 134 133 133 135 135 134 131 129 128 112 94 82 71 58 44 43 39 27 25 23 19 30 27 29 45 61 92 92 74 95 76 71 116 114 114 116 115
138 141 147 139 139 137 135 135 135 136 138 138 138 137 129 120 94 85 67 44 35 38 29 20 18 22 23 27 32 30 34 53 75 100 100 105 139 95 122 132 146 136 139
141 146 148 148 145 144 139 139 142 142 144 145 141 134 126 109 101 77 47 25 26 24 15 15 17 20 32 24 29 46 51 60 70 102 111 116 33 108 132 144 139 140 133
137 139 144 146 146 147 149 146 145 146 146 143 142 140 130 107 81 46 17 6 18 8 11 16 16 27 37 29 23 33 54 62 39 103 117 184 347 106 125 124 139 141 137
144 144 144 145 150 156 159 156 146 146 147 150 150 150 147 127 64 23 4 6 8 4 7 13 14 16 35 41 24 20 49 68 80 31 118 334 13 110 122 139 146 148 145
150 151 150 151 148 150 163 170 165 158 166 171 167 168 161 91 359 20 340 358 345 336 354 359 10 23 27 30 28 28 49 52 56 67 26 359 302 64 163 153 167 165 164
155 158 147 152 163 156 164 174 177 179 188 190 188 184 147 333 32 330 310 308 339 341 351 352 360 21 49 31 23 47 24 25 2 64 328 326 339 216 163 170 179 181 177
163 166 165 170 162 166 165 194 174 187 193 191 211 249 173 249 233 221 280 323 341 359 6 5 18 30 28 356 343 356 3 348 290 267 293 320 322 300 206 196 192 192 193
170 168 172 169 171 170 177 179 181 201 201 225 216 217 235 237 265 303 298 313 333 350 321 359 322 355 338 318 310 316 322 320 313 315 310 306 313 285 232 206 194 214 200
175 177 179 181 182 182 189 189 195 205 210 219 240 234 217 251 258 266 269 297 297 289 297 273 290 296 297 297 291 307 309 318 310 311 316 309 316 284 245 237 209 205 214
182 184 187 190 192 192 193 200 204 210 216 222 228 253 221 240 251 268 265 271 295 288 306 277 282 299 301 298 303 289 301 316 296 291 303 305 307 280 245 236 227 223 216
188 189 192 193 197 197 202 204 210 212 221 227 234 239 267 236 249 255 281 293 287 293 273 276 268 259 303 299 311 326 321 297 292 285 269 295 302 308 269 243 241 240 233
194 194 195 197 202 205 208 219 217 223 230 233 234 233 242 257 245 244 249 262 267 278 284 291 304 326 324 314 313 302 299 298 291 286 277 255 277 300 304 289 252 240 245
197 197 198 201 206 211 211 215 216 228 231 230 239 253 236 256 273 261 275 283 283 277 276 284 311 304 305 301 302 305 302 301 302 296 302 254 247 258 290 278 287 269 259
200 201 202 201 204 208 216 217 223 227 233 241 248 240 255 255 263 259 262 265 269 263 267 287 307 305 302 305 299 298 305 314 314 320 295 268 224 245 237 241 292 290 262
203 203 204 206 205 208 214 218 219 223 226 240 248 239 256 247 242 248 249 257 265 284 290 250 264 293 291 303 291 278 280 287 300 11 29 75 61 161 201 233 298 285 286
203 204 205 203 210 203 213 217 219 231 228 234 238 244 238 263 256 253 256 258 279 259 238 305 294 296 317 289 297 264 244 207 347 117 74 80 64 159 289 299 5 152 257
203 204 203 205 205 210 215 206 216 224 229 240 240 228 231 246 249 244 235 256 244 261 276 275 290 282 292 285 311 284 246 193 186 141 147 14 144 95 346 7 271 196 262
206 204 205 207 209 210 203 213 220 218 231 228 233 257 255 233 229 242 235 209 240 233 272 295 292 282 289 292 303 316 292 66 186 180 34 168 29 354 35 340 312 285 219
209 208 207 210 210 213 210 208 215 217 222 228 229 226 213 216 208 219 213 214 228 193 219 271 284 196 281 305 321 337 305 338 324 172 193 204 43 352 175 174 311 325 50
211 211 210 212 213 206 216 206 216 215 218 216 215 217 206 217 198 201 201 214 225 185 234 212 250 207 253 285 294 304 318 300 318 309 307 149 293 243 313 323 274 273 313
213 212 211 211 215 215 209 221 204 218 212 212 213 213 207 206 208 199 208 208 215 194 226 241 224 227 199 208 221 272 275 290 319 304 295 292 287 285 259 283 279 283 277